Location: Partizánske
(48.6285°N, 18.3769°E)
Time: 23:42:57
(UTC+02:00)

Vanguard 1 Rocket - All Passes

Search period start: 24 June 2022 00:00
Search period end: 04 July 2022 00:00
Orbit: 651 x 4224 km, 34.3° (Epoch: 24 June)

Date Brightness Start Highest point End Pass type
(mag) Time Alt. Az. Time Alt. Az. Time Alt. Az.
24 Jun - 01:36:29 10° SW 01:39:02 14° S 01:41:26 10° SSE night (unlit)
24 Jun - 22:00:38 10° SSW 22:04:05 13° SSE 22:06:54 10° SE visible
25 Jun - 00:24:53 10° SW 00:28:22 16° S 00:31:18 10° SE visible
25 Jun - 20:50:23 10° S 20:52:50 11° SSE 20:54:58 10° SE daylight
25 Jun - 23:13:08 10° SW 23:17:35 18° S 23:21:02 10° SE visible
26 Jun - 01:39:09 10° SW 01:41:29 13° SSW 01:43:40 10° SSE night (unlit)
26 Jun - 22:01:16 10° SSW 22:06:36 18° S 22:10:34 10° SE visible
27 Jun - 00:27:03 10° SW 00:30:52 17° S 00:33:58 10° SE visible
27 Jun - 20:49:34 10° SSW 20:55:22 16° SSE 20:59:40 10° SE daylight
27 Jun - 23:14:52 10° SW 23:20:07 20° S 23:23:57 10° SE visible
28 Jun - 01:42:04 10° SW 01:43:53 12° SSW 01:45:35 10° S visible
28 Jun - 19:38:40 10° S 19:43:48 13° SSE 19:47:53 10° SE daylight
28 Jun - 22:02:27 10° SW 22:09:09 22° S 22:13:44 10° SE visible
29 Jun - 00:29:21 10° SW 00:33:18 17° SSW 00:36:29 10° SSE visible
29 Jun - 20:50:01 10° SSW 20:57:53 21° S 21:03:12 10° ESE daylight
29 Jun - 23:16:46 10° SW 23:22:36 22° S 23:26:44 10° SE visible
30 Jun - 19:37:53 10° SSW 19:46:18 19° SSE 19:52:09 10° ESE daylight
30 Jun - 22:03:56 10° SW 22:11:39 25° S 22:16:41 10° SE visible
01 Jul - 00:31:47 10° WSW 00:35:42 17° SSW 00:38:51 10° SSE visible
01 Jul - 18:26:46 10° S 18:34:21 15° SSE 18:40:06 10° SE daylight
01 Jul - 20:50:54 10° SW 21:00:23 26° S 21:06:21 10° ESE daylight
01 Jul - 23:18:47 10° WSW 23:25:03 23° SSW 23:29:22 10° SE visible
02 Jul - 17:19:01 10° SSE 17:22:07 11° SSE 17:24:56 10° SE daylight
02 Jul - 19:38:00 10° SSW 19:48:45 24° SSE 19:55:38 10° ESE daylight
02 Jul - 22:05:34 10° WSW 22:14:08 28° S 22:19:29 10° SE visible
03 Jul - 00:34:22 10° WSW 00:38:02 15° SSW 00:41:00 10° S visible
03 Jul - 18:25:40 10° SSW 18:36:44 21° SSE 18:44:16 10° ESE daylight
03 Jul - 20:52:05 10° SW 21:02:51 30° S 21:09:18 10° ESE daylight
03 Jul - 23:20:54 10° WSW 23:27:26 23° SSW 23:31:54 10° SSE visible
